Weather History for Lumberton, NC

Change the Weather History Date:

Monday, February 27, 2012

  Actual Average Record
Temperature  
Mean Temperature 46 °F 50 °F  
Max Temperature 55 °F 61 °F 80 °F (2011)
Min Temperature 37 °F 38 °F 22 °F (2006)
Degree Days  
Heating Degree Days 19 16  
Month to date heating degree days 454 496  
Since 1 July heating degree days 1836 2215  
Cooling Degree Days 0 0  
Month to date cooling degree days 0 0  
Year to date cooling degree days 0 1  
Moisture  
Dew Point 49 °F    
Average Humidity 88    
Maximum Humidity 100    
Minimum Humidity 76    
Precipitation  
Precipitation 0.44 in 0.11 in 0.74 in (2004)
Month to date precipitation 2.36 2.79  
Year to date precipitation 4.52 5.76  
Sea Level Pressure  
Sea Level Pressure 30.38 in    
Wind  
Wind Speed 3 mph (NNE)    
Max Wind Speed 8 mph    
Max Gust Speed 10 mph    
Visibility 4 miles    
Events Fog , Rain    
T = Trace of Precipitation, MM = Missing Value Source: NWS Daily Summary

Daily Weather History Graph

Daily Weather History Graph

Search for Another Location

Airport:

Trip Planner

Search our weather history database for the weather conditions in past years. The results will help you decide how hot, cold, wet, or windy it might be!

Date:

Astronomy

Feb. 27, 2012 Rise Set
Actual Time 6:48 AM EST 6:10 PM EST
Civil Twilight 6:23 AM EST 6:35 PM EST
Nautical Twilight 5:53 AM EST 7:04 PM EST
Astronomical Twilight 5:24 AM EST 7:33 PM EST
Moon 9:33 AM EST (2/27) 11:44 PM EST (2/27)
Length of Visible Light 12h 12m
Length of Day
11h 21m
Waxing Crescent, 29% of the Moon is Illuminated
Feb 27
Waxing Crescent
Feb 29
First Quarter
Mar 8
Full
Mar 14
Last Quarter
Mar 22
New

Hourly Weather History & Observations

Time (EST) Temp. Windchill Dew Point Humidity Pressure Visibility Wind Dir Wind Speed Gust Speed Precip Events Conditions
12:54 AM 37.9 °F - 34.0 °F 86% 30.45 in 10.0 mi Calm Calm - N/A   Mostly Cloudy
1:54 AM 41.0 °F - 37.0 °F 86% 30.45 in 10.0 mi Calm Calm - N/A   Overcast
2:54 AM 43.0 °F - 36.0 °F 76% 30.45 in 10.0 mi Calm Calm - N/A   Overcast
3:54 AM 45.0 °F - 37.9 °F 76% 30.44 in 10.0 mi Calm Calm - N/A   Overcast
4:54 AM 46.0 °F 44.8 °F 39.0 °F 76% 30.43 in 10.0 mi NNE 3.5 mph - N/A   Overcast
5:54 AM 46.0 °F 44.8 °F 39.0 °F 76% 30.43 in 10.0 mi NE 3.5 mph - N/A   Overcast
6:54 AM 46.9 °F - 39.9 °F 77% 30.43 in 10.0 mi NE 3.5 mph - N/A   Overcast
7:47 AM 46.4 °F 45.2 °F 39.2 °F 76% 30.44 in 10.0 mi NNE 3.5 mph - N/A   Overcast
7:54 AM 46.9 °F - 39.9 °F 77% 30.44 in 10.0 mi NE 3.5 mph - N/A   Overcast
8:34 AM 48.2 °F - 41.0 °F 76% 30.44 in 4.0 mi NNE 3.5 mph - 0.00 in Rain Light Rain
8:50 AM 46.4 °F 44.3 °F 42.8 °F 87% 30.45 in 9.0 mi North 4.6 mph - 0.00 in   Overcast
8:54 AM 46.9 °F - 42.1 °F 83% 30.45 in 8.0 mi North 3.5 mph - 0.00 in   Overcast
9:04 AM 46.4 °F 44.3 °F 42.8 °F 87% 30.44 in 4.0 mi North 4.6 mph - 0.00 in Rain Light Rain
9:37 AM 46.4 °F 43.5 °F 42.8 °F 87% 30.44 in 2.0 mi NNE 5.8 mph - 0.02 in Rain Light Rain
9:54 AM 46.9 °F - 44.1 °F 90% 30.44 in 2.5 mi NE 4.6 mph - 0.02 in   Overcast
10:05 AM 48.2 °F - 44.6 °F 87% 30.44 in 5.0 mi NNE 4.6 mph - N/A   Overcast
10:33 AM 48.2 °F - 46.4 °F 93% 30.43 in 4.0 mi NNE 4.6 mph - 0.00 in Rain Light Rain
10:52 AM 50.0 °F - 46.4 °F 87% 30.42 in 6.0 mi East 4.6 mph - 0.00 in   Overcast
10:54 AM 50.0 °F - 46.9 °F 89% 30.43 in 5.0 mi ENE 4.6 mph - 0.00 in   Overcast
11:39 AM 51.8 °F - 48.2 °F 88% 30.41 in 1.8 mi East 3.5 mph - 0.01 in Rain Light Rain
11:44 AM 51.8 °F - 48.2 °F 88% 30.41 in 2.0 mi ENE 3.5 mph - 0.01 in Rain Light Rain
11:52 AM 51.8 °F - 48.2 °F 88% 30.41 in 6.0 mi NE 3.5 mph - 0.01 in   Overcast
11:54 AM 52.0 °F - 48.0 °F 86% 30.41 in 5.0 mi Calm Calm - 0.01 in   Overcast
12:44 PM 53.6 °F - 50.0 °F 88% 30.39 in 5.0 mi Calm Calm - 0.00 in Rain Light Rain
12:54 PM 53.1 °F - 50.0 °F 89% 30.39 in 3.0 mi Calm Calm - 0.00 in Rain Light Rain
1:01 PM 53.6 °F - 50.0 °F 88% 30.38 in 1.8 mi Calm Calm - 0.01 in Rain Light Rain
1:07 PM 53.6 °F - 51.8 °F 94% 30.38 in 1.5 mi Calm Calm - 0.01 in Rain Light Rain
1:16 PM 53.6 °F - 51.8 °F 94% 30.37 in 1.0 mi NE 3.5 mph - 0.03 in Rain Light Rain
1:41 PM 53.6 °F - 51.8 °F 94% 30.36 in 1.5 mi NNE 4.6 mph - 0.05 in Rain Light Rain
1:50 PM 53.6 °F - 51.8 °F 94% 30.35 in 2.0 mi North 5.8 mph - 0.06 in Rain Light Rain
1:54 PM 54.0 °F - 52.0 °F 93% 30.35 in 2.5 mi North 4.6 mph - 0.06 in Rain Light Rain
2:02 PM 53.6 °F - 51.8 °F 94% 30.35 in 3.0 mi North 3.5 mph - 0.00 in   Overcast
2:11 PM 53.6 °F - 51.8 °F 94% 30.35 in 2.0 mi Calm Calm - 0.00 in Rain Light Rain
2:22 PM 53.6 °F - 51.8 °F 94% 30.35 in 2.0 mi North 3.5 mph - 0.00 in Rain Light Rain
2:25 PM 53.6 °F - 51.8 °F 94% 30.35 in 1.8 mi North 3.5 mph - 0.00 in Rain Light Rain
2:39 PM 53.6 °F - 51.8 °F 94% 30.34 in 1.0 mi ENE 3.5 mph - 0.03 in Rain Rain
2:41 PM 53.6 °F - 51.8 °F 94% 30.34 in 0.8 mi Calm Calm - 0.04 in Rain Rain
2:54 PM 54.0 °F - 53.1 °F 97% 30.34 in 0.8 mi Calm Calm - 0.07 in Rain Light Rain
3:04 PM 53.6 °F - 53.6 °F 100% 30.34 in 1.2 mi NNE 3.5 mph - 0.01 in Rain Light Rain
3:08 PM 55.4 °F - 53.6 °F 94% 30.34 in 1.0 mi NNE 3.5 mph - 0.02 in Rain Rain
3:37 PM 55.4 °F - 53.6 °F 94% 30.32 in 1.2 mi NE 4.6 mph - 0.03 in Rain Light Rain
3:39 PM 55.4 °F - 53.6 °F 94% 30.32 in 1.0 mi NE 4.6 mph - 0.04 in Rain Light Rain
3:52 PM 55.4 °F - 53.6 °F 94% 30.32 in 1.2 mi ENE 4.6 mph - 0.04 in Rain Light Rain
3:54 PM 55.0 °F - 54.0 °F 96% 30.32 in 1.2 mi ENE 5.8 mph - 0.04 in Rain Light Rain
4:04 PM 55.4 °F - 53.6 °F 94% 30.32 in 1.2 mi ENE 4.6 mph - 0.01 in Rain Light Rain
4:13 PM 55.4 °F - 53.6 °F 94% 30.32 in 0.8 mi Calm Calm - 0.03 in Rain Rain
4:31 PM 55.4 °F - 53.6 °F 94% 30.32 in 1.0 mi Calm Calm - 0.05 in Rain Light Rain
4:38 PM 55.4 °F - 53.6 °F 94% 30.32 in 1.5 mi East 3.5 mph - 0.05 in Rain Light Rain
4:54 PM 55.0 °F - 54.0 °F 96% 30.32 in 1.0 mi Calm Calm - 0.07 in Rain Light Rain
5:12 PM 55.4 °F - 53.6 °F 94% 30.32 in 1.8 mi Calm Calm - 0.02 in Rain Light Rain
5:22 PM 55.4 °F - 53.6 °F 94% 30.32 in 1.2 mi WNW 5.8 mph - 0.03 in Rain Light Rain
5:44 PM 55.4 °F - 53.6 °F 94% 30.33 in 1.8 mi WNW 4.6 mph - 0.05 in Rain Light Rain
8:52 PM 53.6 °F - 51.8 °F 94% 30.35 in 0.8 mi NNW 4.6 mph - 0.00 in   Overcast
8:54 PM 53.1 °F - 52.0 °F 96% 30.36 in 0.8 mi NNW 4.6 mph - 0.00 in   Overcast
9:54 PM 52.0 °F - 52.0 °F 100% 30.36 in 0.2 mi NW 4.6 mph - N/A Fog Fog
10:37 PM 51.8 °F - 51.8 °F 100% 30.37 in 1.2 mi West 8.1 mph - N/A   Overcast
10:40 PM 51.8 °F - 51.8 °F 100% 30.37 in 2.0 mi WNW 6.9 mph - N/A   Overcast
10:47 PM 51.8 °F - 51.8 °F 100% 30.37 in 3.0 mi WNW 8.1 mph - N/A   Overcast
10:54 PM 51.1 °F - 50.0 °F 96% 30.37 in 2.5 mi WNW 8.1 mph - N/A   Overcast
11:00 PM 51.8 °F - 50.0 °F 94% 30.37 in 1.5 mi WNW 6.9 mph - N/A   Overcast
11:15 PM 50.0 °F - 50.0 °F 100% 30.37 in 2.0 mi WNW 6.9 mph - N/A   Overcast
11:24 PM 50.0 °F - 50.0 °F 100% 30.37 in 4.0 mi WNW 8.1 mph - N/A   Overcast
11:54 PM 50.0 °F - 48.9 °F 96% 30.36 in 5.0 mi NW 3.5 mph - N/A   Overcast